This is the latest recevied weather packets stored in our database for station/object JA7ZQY-10. If no packets are shown the sender has not sent any weather packets the latest 10 day(s).
| Time | Temp. | Humidity | Pressure | Rain* | Wind** | Luminosity | Snow |
|---|---|---|---|---|---|---|---|
| 1778103889 | 18.89° C | 45% | 1014.2 hPa | 0 mm | - | - | - |
| 1778103290 | 18.33° C | 46% | 1014.2 hPa | 0 mm | - | - | - |
| 1778102690 | 18.33° C | 47% | 1014.3 hPa | 0 mm | - | - | - |
| 1778102089 | 17.78° C | 50% | 1014.6 hPa | 0 mm | - | - | - |
| 1778101490 | 16.67° C | 56% | 1014.4 hPa | 0 mm | - | - | - |
| 1778100891 | 16.11° C | 59% | 1014.4 hPa | 0 mm | - | - | - |
| 1778100290 | 15° C | 62% | 1014.4 hPa | 0 mm | - | - | - |
| 1778099691 | 13.89° C | 66% | 1014.5 hPa | 0 mm | - | - | - |
| 1778099090 | 12.22° C | 72% | 1014.5 hPa | 0 mm | - | - | - |
| 1778098490 | 11.67° C | 72% | 1014.7 hPa | 0 mm | - | - | - |
| 1778097890 | 11.67° C | 73% | 1014.8 hPa | 0 mm | - | - | - |
| 1778097289 | 11.11° C | 73% | 1014.9 hPa | 0 mm | - | - | - |
| 1778096691 | 11.11° C | 73% | 1014.8 hPa | 0 mm | - | - | - |
| 1778096090 | 11.11° C | 72% | 1015 hPa | 0 mm | - | - | - |
| 1778095490 | 11.11° C | 71% | 1014.6 hPa | 0 mm | - | - | - |
| 1778094891 | 11.67° C | 71% | 1014.8 hPa | 0 mm | - | - | - |
| 1778094290 | 11.67° C | 71% | 1014.8 hPa | 0 mm | - | - | - |
| 1778093691 | 11.67° C | 71% | 1015 hPa | 0 mm | - | - | - |
| 1778093090 | 11.67° C | 70% | 1015.4 hPa | 0 mm | - | - | - |
| 1778092490 | 11.67° C | 70% | 1015.4 hPa | 0 mm | - | - | - |
| 1778091891 | 12.22° C | 70% | 1015.3 hPa | 0 mm | - | - | - |
| 1778091291 | 12.22° C | 70% | 1015.2 hPa | 0 mm | - | - | - |
| 1778090691 | 12.22° C | 69% | 1015.6 hPa | 0 mm | - | - | - |
| 1778090090 | 12.22° C | 64% | 1015.8 hPa | 0 mm | - | - | - |
| 1778089489 | 12.22° C | 67% | 1015.9 hPa | 0 mm | - | - | - |
* Rain latest hour (hover to see other rain measurements)
** Current wind speed in m/s (hover to see current wind gust speed)